| time (UTC) | temp F | wind direction | speed MPH | gust MPH | rain 1hr in | rain 24hr in | rain mn in | humidity % | barometer mb |
| 20260503024545 | 46 | 0 | 0.0 | 0.0 | 0.00 | 0.01 | 0.01 | 91 | 1019.1 |
| 20260503023052 | 46 | 0 | 0.0 | 0.0 | 0.00 | 0.01 | 0.01 | 91 | 1019.0 |
| 20260503021551 | 47 | 0 | 0.0 | 1.0 | 0.00 | 0.01 | 0.01 | 90 | 1018.7 |
| 20260503020054 | 47 | 0 | 0.0 | 0.0 | 0.00 | 0.01 | 0.01 | 89 | 1018.6 |
| 20260503014617 | 48 | 0 | 0.0 | 0.0 | 0.00 | 0.01 | 0.01 | 88 | 1018.7 |
| 20260503013046 | 48 | 0 | 0.0 | 1.0 | 0.00 | 0.01 | 0.01 | 88 | 1018.5 |
| 20260503011600 | 49 | 0 | 0.0 | 1.0 | 0.00 | 0.01 | 0.01 | 88 | 1018.4 |
| 20260503010052 | 49 | 0 | 0.0 | 2.0 | 0.01 | 0.01 | 0.01 | 86 | 1018.3 |
| 20260503004556 | 50 | 14 | 0.0 | 3.0 | 0.01 | 0.01 | 0.01 | 84 | 1018.3 |
| 20260503003045 | 50 | 0 | 1.0 | 4.0 | 0.01 | 0.01 | 0.01 | 82 | 1018.0 |
| 20260503001559 | 51 | 26 | 1.0 | 6.0 | 0.01 | 0.01 | 0.01 | 79 | 1017.8 |
| 20260503000100 | 53 | 5 | 1.0 | 5.0 | 0.00 | 0.00 | 0.00 | 75 | 1017.2 |
| 20260502234546 | 55 | 355 | 1.0 | 3.0 | 0.00 | 0.00 | 0.00 | 68 | 1016.7 |
| 20260502233047 | 57 | 0 | 0.0 | 0.0 | 0.00 | 0.00 | 0.00 | 60 | 1016.0 |
| 20260502231544 | 57 | 0 | 0.0 | 0.0 | 0.00 | 0.00 | 0.00 | 59 | 1015.9 |
| 20260502230044 | 58 | 25 | 2.0 | 8.0 | 0.00 | 0.00 | 0.00 | 56 | 1016.1 |
| 20260502224600 | 59 | 0 | 1.0 | 4.0 | 0.00 | 0.00 | 0.00 | 53 | 1016.0 |
| 20260502223046 | 59 | 293 | 1.0 | 4.0 | 0.00 | 0.00 | 0.00 | 50 | 1015.7 |
| 20260502221544 | 60 | 0 | 2.0 | 6.0 | 0.00 | 0.00 | 0.00 | 46 | 1015.7 |
| 20260502220052 | 61 | 0 | 0.0 | 0.0 | 0.00 | 0.00 | 0.00 | 46 | 1015.5 |
| 20260502214550 | 62 | 0 | 0.0 | 4.0 | 0.00 | 0.00 | 0.00 | 48 | 1015.6 |
| 20260502213100 | 63 | 80 | 1.0 | 4.0 | 0.00 | 0.00 | 0.00 | 47 | 1015.5 |
| 20260502211608 | 62 | 0 | 1.0 | 5.0 | 0.00 | 0.00 | 0.00 | 49 | 1015.5 |
| 20260502210046 | 62 | 19 | 1.0 | 8.0 | 0.00 | 0.00 | 0.00 | 51 | 1015.7 |
| 20260502204545 | 63 | 55 | 1.0 | 7.0 | 0.00 | 0.00 | 0.00 | 46 | 1015.6 |
| 20260502203057 | 62 | 321 | 2.0 | 9.0 | 0.00 | 0.00 | 0.00 | 48 | 1016.0 |
| 20260502201555 | 61 | 0 | 1.0 | 9.0 | 0.00 | 0.00 | 0.00 | 50 | 1016.1 |
| 20260502200048 | 60 | 327 | 2.0 | 6.0 | 0.00 | 0.00 | 0.00 | 49 | 1016.2 |
| 20260502194601 | 61 | 338 | 2.0 | 11.0 | 0.00 | 0.00 | 0.00 | 45 | 1016.0 |
| 20260502193046 | 62 | 344 | 3.0 | 11.0 | 0.00 | 0.00 | 0.00 | 44 | 1016.1 |
| 20260502191550 | 60 | 311 | 2.0 | 6.0 | 0.00 | 0.00 | 0.00 | 48 | 1016.2 |
| 20260502190047 | 60 | 0 | 1.0 | 4.0 | 0.00 | 0.00 | 0.00 | 46 | 1016.3 |
| 20260502184556 | 61 | 18 | 2.0 | 5.0 | 0.00 | 0.00 | 0.00 | 47 | 1016.4 |
| 20260502183056 | 62 | 319 | 3.0 | 7.0 | 0.00 | 0.00 | 0.00 | 43 | 1016.4 |
| 20260502181546 | 63 | 355 | 2.0 | 8.0 | 0.00 | 0.00 | 0.00 | 47 | 1016.4 |
| 20260502163051 | 61 | 332 | 1.0 | 9.0 | 0.00 | 0.00 | 0.00 | 53 | 1017.5 |
| 20260502161546 | 60 | 325 | 1.0 | 4.0 | 0.00 | 0.00 | 0.00 | 50 | 1017.5 |
| 20260502151602 | 59 | 41 | 2.0 | 7.0 | 0.00 | 0.00 | 0.00 | 52 | 1017.6 |
| 20260502123050 | 46 | 0 | 0.0 | 2.0 | 0.00 | 0.00 | 0.00 | 84 | 1017.2 |
| 20260502121546 | 45 | 0 | 0.0 | 1.0 | 0.00 | 0.00 | 0.00 | 85 | 1017.0 |
| 20260502114602 | 43 | 0 | 0.0 | 0.0 | 0.00 | 0.00 | 0.00 | 87 | 1016.7 |
| 20260502113048 | 43 | 0 | 0.0 | 0.0 | 0.00 | 0.00 | 0.00 | 86 | 1016.5 |
| 20260502111553 | 43 | 0 | 0.0 | 0.0 | 0.00 | 0.00 | 0.00 | 86 | 1016.3 |
| 20260502110051 | 43 | 0 | 0.0 | 0.0 | 0.00 | 0.00 | 0.00 | 85 | 1016.2 |
| 20260502104551 | 43 | 0 | 0.0 | 0.0 | 0.00 | 0.00 | 0.00 | 85 | 1016.2 |
| 20260502103047 | 44 | 0 | 0.0 | 0.0 | 0.00 | 0.00 | 0.00 | 84 | 1016.2 |
| 20260502101612 | 44 | 0 | 0.0 | 0.0 | 0.00 | 0.00 | 0.00 | 83 | 1016.2 |
| 20260502090104 | 45 | 0 | 0.0 | 0.0 | 0.00 | 0.00 | 0.00 | 81 | 1015.8 |
| 20260502070057 | 47 | 0 | 0.0 | 0.0 | 0.00 | 0.00 | 0.00 | 73 | 1016.7 |
| 20260502064548 | 47 | 0 | 0.0 | 0.0 | 0.00 | 0.00 | 0.00 | 73 | 1016.7 |
| 20260502063057 | 47 | 0 | 0.0 | 0.0 | 0.00 | 0.00 | 0.00 | 72 | 1016.7 |
| 20260502061549 | 48 | 0 | 0.0 | 0.0 | 0.00 | 0.00 | 0.00 | 71 | 1016.7 |
| 20260502060052 | 48 | 0 | 0.0 | 0.0 | 0.00 | 0.00 | 0.00 | 70 | 1016.8 |
| 20260502054552 | 48 | 0 | 0.0 | 0.0 | 0.00 | 0.00 | 0.00 | 69 | 1017.0 |
| 20260502053049 | 49 | 0 | 0.0 | 0.0 | 0.00 | 0.00 | 0.00 | 68 | 1016.8 |
| 20260502051604 | 49 | 0 | 0.0 | 0.0 | 0.00 | 0.00 | 0.00 | 67 | 1016.6 |
| 20260502050047 | 50 | 0 | 0.0 | 0.0 | 0.00 | 0.00 | 0.00 | 66 | 1016.8 |
| 20260502044549 | 50 | 0 | 0.0 | 0.0 | 0.00 | 0.00 | 0.00 | 65 | 1016.7 |
| 20260502043051 | 51 | 0 | 0.0 | 0.0 | 0.00 | 0.00 | 0.00 | 65 | 1016.6 |
| 20260502041544 | 51 | 0 | 0.0 | 0.0 | 0.00 | 0.00 | 0.00 | 63 | 1016.6 |
| 20260502040057 | 51 | 0 | 0.0 | 0.0 | 0.00 | 0.00 | 0.00 | 63 | 1016.8 |
| 20260502034545 | 52 | 0 | 0.0 | 0.0 | 0.00 | 0.00 | 0.00 | 61 | 1017.0 |
| 20260502033057 | 52 | 0 | 0.0 | 0.0 | 0.00 | 0.00 | 0.00 | 60 | 1017.0 |
| 20260502031552 | 52 | 0 | 0.0 | 0.0 | 0.00 | 0.00 | 0.00 | 60 | 1017.1 |
| 20260502030057 | 52 | 0 | 0.0 | 0.0 | 0.00 | 0.00 | 0.00 | 60 | 1016.9 |